SHIYAN-32 03

Last updated on Tue Dec 09 2025 00:02:05 GMT+0000 (Coordinated Universal Time)

1 66379U 25255D 25342.79460574 .00019759 00000+0 44924-3 0 9994 2 66379 52.9957 196.7687 0015675 30.5170 329.6743 15.42904041 4620
UTC large
Height (km)
Speed (km/s)
/
Latitude / Longitude
Inclination (degrees)
Orbital Period (minutes)
Azimuth
Elevation
Range (km)
Doppler Factor

Next 0 passes for location: London (51.5072 / 0.1276)

Sorry there are no passes over London.